Regional Weather Roundup
Issued by NWS Goodland, KS

Home | Current Version | Previous Version | Graphics & Text | Print | Product List | Glossary On
Versions: 1 2 3 4 5 6 7 8 9 10 11 12 13 14 15 16 17 18 19 20 21 22 23 24 25 26 27 28 29 30 31 32 33 34 35 36 37 38 39 40 41 42 43 44 45 46 47 48 49 50
000
ASUS43 KGLD 221408
RWRGLD

GOODLAND FORECAST AREA HOURLY WEATHER ROUNDUP
NATIONAL WEATHER SERVICE GOODLAND KS
800 AM MDT SAT JUL 22 2017

...OFFICIAL OBSERVATIONS...

CITY           SKY/WX    TMP DP  RH WIND       PRES   REMARKS
GOODLAND KS    SUNNY     77  60  55 NW14      30.07R
HILL CITY KS   SUNNY     81  62  52 W9        29.93R
IMPERIAL NEB   CLOUDY    73  59  61 NW8       30.05R
MCCOOK NEB     MOSUNNY   84  59  42 N12       29.97R
AKRON CO       CLOUDY    66  61  84 W12       30.14R
BURLINGTON CO  MOSUNNY   73  60  63 N16       30.13R
LIMON CO       CLOUDY    65  60  84 NW3       30.21R
$$

...UNOFFICIAL OBSERVATIONS...

CITY           SKY/WX    TMP DP  RH WIND       PRES   REMARKS
LENORA KS        N/A     78  32  18 MISG        N/A
NORTON KS      SUNNY     82  55  39 NE6       29.93R
SHARON SPRINGS   N/A     76  62  61 NW12        N/A
TRENTON NEB      N/A     82  32  16 N7          N/A
KIT CARSON CO    N/A     71  58  64 MISG        N/A
YUMA CO        PTSUNNY   66  54  63 NE8       30.13R
$$



USA.gov is the U.S. government's official web portal to all federal, state and local government web resources and services.